When you browse on this site, cookies collect data to enhance your experience and personalize the content and advertising you see.
Visit our Privacy Policy to learn more. By continuing to use the site, you agree to this use of cookies and data.
EN

Hourly Weather Uspenka

Today, 15 August, Saturday

Time Temperature Precipitation Wind Pressure Humidity
00:00 +15°C° 0 mm 2 mps 752 mmHg 76%
01:00 +14°C° 0 mm 2 mps 752 mmHg 78%
02:00 +14°C° 0 mm 2 mps 752 mmHg 81%
03:00 +13°C° 0 mm 2 mps 752 mmHg 82%
04:00 +13°C° 0 mm 2 mps 753 mmHg 81%
05:00 +13°C° 0 mm 2 mps 753 mmHg 80%
06:00 +13°C° 0 mm 2 mps 753 mmHg 79%
07:00 +14°C° 0 mm 3 mps 753 mmHg 70%
08:00 +16°C° 0 mm 3 mps 754 mmHg 62%
09:00 +18°C° 0 mm 4 mps 754 mmHg 53%
10:00 +20°C° 0 mm 4 mps 754 mmHg 47%
11:00 +21°C° 0 mm 4 mps 754 mmHg 42%
12:00 +22°C° 0 mm 5 mps 754 mmHg 36%
13:00 +22°C° 0 mm 5 mps 754 mmHg 35%
14:00 +23°C° 0 mm 5 mps 754 mmHg 34%
15:00 +23°C° 0 mm 5 mps 754 mmHg 33%
16:00 +23°C° 0 mm 5 mps 754 mmHg 35%
17:00 +22°C° 0 mm 5 mps 754 mmHg 36%
18:00 +22°C° 0 mm 5 mps 753 mmHg 38%
19:00 +20°C° 0 mm 4 mps 754 mmHg 44%
20:00 +18°C° 0 mm 3 mps 754 mmHg 50%
21:00 +16°C° 0 mm 3 mps 754 mmHg 57%
22:00 +15°C° 0 mm 2 mps 754 mmHg 59%
23:00 +14°C° 0 mm 2 mps 754 mmHg 61%

Tomorrow, 16 August, Sunday

Time Temperature Precipitation Wind Pressure Humidity
00:00 +14°C° 0 mm 1 mps 754 mmHg 63%
01:00 +13°C° 0 mm 1 mps 754 mmHg 64%
02:00 +13°C° 0 mm 1 mps 754 mmHg 66%
03:00 +13°C° 0 mm 1 mps 754 mmHg 67%
04:00 +13°C° 0 mm 1 mps 754 mmHg 68%
05:00 +13°C° 0 mm 1 mps 754 mmHg 69%
06:00 +13°C° 0 mm 1 mps 754 mmHg 70%
07:00 +15°C° 0 mm 2 mps 754 mmHg 62%
08:00 +17°C° 0 mm 2 mps 754 mmHg 55%
09:00 +19°C° 0 mm 3 mps 754 mmHg 48%
10:00 +21°C° 0 mm 3 mps 754 mmHg 44%
11:00 +22°C° 0 mm 3 mps 754 mmHg 40%
12:00 +24°C° 0 mm 3 mps 754 mmHg 36%
13:00 +24°C° 0 mm 3 mps 754 mmHg 36%
14:00 +23°C° 0 mm 4 mps 754 mmHg 36%
15:00 +25°C° 0 mm 4 mps 753 mmHg 36%
16:00 +23°C° 0 mm 4 mps 753 mmHg 38%
17:00 +23°C° 0 mm 4 mps 753 mmHg 41%
18:00 +22°C° 0 mm 4 mps 753 mmHg 43%
19:00 +21°C° 0 mm 3 mps 753 mmHg 48%
20:00 +19°C° 0 mm 2 mps 753 mmHg 53%
21:00 +18°C° 0 mm 1 mps 753 mmHg 57%
22:00 +16°C° 0 mm 1 mps 753 mmHg 59%
23:00 +16°C° 0 mm 1 mps 753 mmHg 60%

Day after tomorrow, 17 August, Monday

Time Temperature Precipitation Wind Pressure Humidity
00:00 +15°C° 0 mm 0 mps 753 mmHg 62%
01:00 +15°C° 0 mm 0 mps 753 mmHg 62%
02:00 +16°C° 0 mm 1 mps 753 mmHg 62%
03:00 +16°C° 0 mm 1 mps 753 mmHg 62%
04:00 +16°C° 0 mm 1 mps 753 mmHg 63%
05:00 +16°C° 0 mm 1 mps 753 mmHg 65%
06:00 +16°C° 0 mm 1 mps 753 mmHg 67%
07:00 +19°C° 0 mm 1 mps 753 mmHg 61%
08:00 +21°C° 0 mm 1 mps 753 mmHg 56%
09:00 +23°C° 0 mm 2 mps 754 mmHg 51%
10:00 +24°C° 0 mm 2 mps 753 mmHg 47%
11:00 +26°C° 0 mm 2 mps 753 mmHg 43%
12:00 +27°C° 0 mm 2 mps 753 mmHg 39%
13:00 +28°C° 0 mm 2 mps 753 mmHg 36%
14:00 +29°C° 0 mm 2 mps 753 mmHg 34%
15:00 +29°C° 0 mm 3 mps 752 mmHg 32%
16:00 +29°C° 0 mm 3 mps 752 mmHg 35%
17:00 +29°C° 0 mm 3 mps 752 mmHg 38%
18:00 +28°C° 0 mm 4 mps 752 mmHg 41%
19:00 +26°C° 0 mm 3 mps 752 mmHg 46%
20:00 +25°C° 0 mm 2 mps 752 mmHg 52%
21:00 +23°C° 0 mm 1 mps 752 mmHg 58%
22:00 +22°C° 0 mm 1 mps 752 mmHg 60%
23:00 +22°C° 0 mm 1 mps 752 mmHg 61%

18 August, Tuesday

Time Temperature Precipitation Wind Pressure Humidity
00:00 +21°C° 0 mm 1 mps 752 mmHg 63%
01:00 +21°C° 0 mm 1 mps 752 mmHg 65%
02:00 +20°C° 0 mm 1 mps 752 mmHg 67%
03:00 +20°C° 0 mm 1 mps 752 mmHg 69%
04:00 +20°C° 0 mm 1 mps 752 mmHg 71%
05:00 +20°C° 0 mm 1 mps 752 mmHg 73%
06:00 +19°C° 0 mm 1 mps 752 mmHg 74%
07:00 +21°C° 0 mm 2 mps 752 mmHg 67%
08:00 +24°C° 0 mm 2 mps 752 mmHg 60%
09:00 +26°C° 0 mm 2 mps 752 mmHg 53%
10:00 +27°C° 0 mm 2 mps 752 mmHg 48%
11:00 +28°C° 0 mm 2 mps 752 mmHg 44%
12:00 +30°C° 0 mm 2 mps 751 mmHg 39%
13:00 +30°C° 0 mm 2 mps 751 mmHg 37%
14:00 +31°C° 0 mm 2 mps 751 mmHg 34%
15:00 +31°C° 0 mm 2 mps 750 mmHg 32%
16:00 +31°C° 0 mm 2 mps 750 mmHg 33%
17:00 +31°C° 0 mm 2 mps 750 mmHg 33%
18:00 +31°C° 0 mm 2 mps 750 mmHg 34%
19:00 +29°C° 0 mm 2 mps 750 mmHg 39%
20:00 +27°C° 0 mm 2 mps 750 mmHg 44%
21:00 +25°C° 0 mm 2 mps 750 mmHg 49%
22:00 +24°C° 0 mm 2 mps 750 mmHg 51%
23:00 +23°C° 0 mm 1 mps 750 mmHg 53%

19 August, Wednesday

Time Temperature Precipitation Wind Pressure Humidity
00:00 +23°C° 0 mm 1 mps 750 mmHg 56%
01:00 +22°C° 0 mm 1 mps 750 mmHg 56%
02:00 +22°C° 0 mm 1 mps 750 mmHg 57%
03:00 +22°C° 0 mm 1 mps 750 mmHg 58%
04:00 +22°C° 0 mm 1 mps 750 mmHg 59%
05:00 +22°C° 0 mm 1 mps 750 mmHg 60%
06:00 +19°C° 0 mm 0 mps 750 mmHg 60%
07:00 +22°C° 0 mm 0 mps 750 mmHg 54%
08:00 +26°C° 0 mm 1 mps 750 mmHg 47%
09:00 +29°C° 0 mm 1 mps 750 mmHg 40%
10:00 +30°C° 0 mm 1 mps 750 mmHg 37%
11:00 +31°C° 0 mm 1 mps 750 mmHg 33%
12:00 +32°C° 0 mm 2 mps 750 mmHg 30%
13:00 +32°C° 0 mm 1 mps 750 mmHg 30%
14:00 +32°C° 0 mm 1 mps 750 mmHg 31%
15:00 +31°C° 0 mm 1 mps 750 mmHg 31%
16:00 +31°C° 0 mm 1 mps 750 mmHg 31%
17:00 +31°C° 0 mm 1 mps 750 mmHg 32%
18:00 +31°C° 0 mm 1 mps 749 mmHg 32%
19:00 +29°C° 0 mm 1 mps 750 mmHg 36%
20:00 +27°C° 0 mm 1 mps 750 mmHg 39%
21:00 +26°C° 0 mm 1 mps 750 mmHg 43%
22:00 +25°C° 0 mm 1 mps 750 mmHg 44%
23:00 +24°C° 0 mm 1 mps 750 mmHg 46%

20 August, Thursday

Time Temperature Precipitation Wind Pressure Humidity
00:00 +24°C° 0 mm 2 mps 750 mmHg 47%
01:00 +23°C° 0 mm 2 mps 750 mmHg 49%
02:00 +23°C° 0 mm 1 mps 750 mmHg 50%
03:00 +23°C° 0 mm 1 mps 749 mmHg 51%
04:00 +23°C° 0 mm 1 mps 750 mmHg 52%
05:00 +22°C° 0 mm 1 mps 750 mmHg 54%
06:00 +22°C° 0 mm 1 mps 750 mmHg 55%
07:00 +25°C° 0 mm 1 mps 750 mmHg 49%
08:00 +27°C° 0 mm 2 mps 750 mmHg 43%
09:00 +30°C° 0 mm 2 mps 750 mmHg 37%
10:00 +31°C° 0 mm 2 mps 750 mmHg 34%
11:00 +32°C° 0 mm 2 mps 750 mmHg 31%
12:00 +34°C° 0 mm 2 mps 750 mmHg 27%
13:00 +34°C° 0 mm 2 mps 749 mmHg 27%
14:00 +34°C° 0 mm 2 mps 749 mmHg 27%
15:00 +34°C° 0 mm 2 mps 749 mmHg 27%
16:00 +34°C° 0 mm 3 mps 749 mmHg 29%
17:00 +33°C° 0 mm 3 mps 749 mmHg 30%
18:00 +33°C° 0 mm 3 mps 748 mmHg 31%
19:00 +30°C° 0 mm 3 mps 748 mmHg 34%
20:00 +28°C° 0 mm 3 mps 748 mmHg 37%
21:00 +27°C° 0 mm 3 mps 749 mmHg 40%
22:00 +27°C° 0 mm 2 mps 749 mmHg 40%
23:00 +27°C° 0 mm 2 mps 749 mmHg 40%
Show more